Lapse_Rate
1.0 1.0 1.3 0.1 0.1 0.9 1.4 2.5 3.5 3.0 2.4 -0.3 -0.1 -1.7 -1.8 -0.3 0.2 0.8 1.3 2.5 3.1 4.9 5.6 5.9 5.6 5.8 6.6 6.8 7.0 7.1 7.8 8.6 8.6 9.2 9.3 9.4 9.3 9.3
-0.8 -0.3 -0.1 -0.4 -0.5 -0.1 0.3 0.7 1.5 3.1 3.5 0.1 -1.2 -1.3 -0.8 -0.2 0.4 0.6 0.9 1.3 2.5 4.1 4.7 4.9 5.0 5.6 6.0 6.4 7.0 6.8 7.2 7.7 9.1 9.3 9.4 9.4 9.4 9.2
-1.7 -1.4 -1.2 -0.6 -0.8 -0.4 -0.6 -0.8 -0.5 0.7 1.8 -0.9 -1.0 -1.3 -1.2 0.1 0.2 0.4 0.8 1.4 2.0 2.7 3.8 4.9 5.4 5.9 5.8 6.2 6.0 6.3 6.4 6.7 7.8 9.3 9.3 8.7 8.5 8.9
-1.5 -1.2 -1.2 -0.4 -0.7 -1.0 -0.8 -1.3 -1.4 -1.1 0.1 -0.2 -0.9 -0.6 0.3 0.5 0.8 1.3 2.3 3.0 2.8 3.0 4.4 4.8 5.3 5.3 5.5 5.6 6.0 6.0 6.3 6.4 6.7 8.7 7.7 7.7 8.1 9.2
-1.1 -0.9 -0.1 -0.1 -0.4 -0.5 -0.5 -0.8 -0.6 -0.6 -0.0 0.3 -1.0 -0.5 0.3 1.0 1.6 2.2 2.4 1.6 2.2 3.4 3.6 3.8 4.4 4.8 4.7 4.8 5.0 5.4 5.4 5.3 5.6 5.9 6.1 6.4 6.7 7.5
-0.1 0.1 0.4 0.4 0.0 -0.5 -0.9 -1.3 -0.7 -0.5 -0.2 -0.2 -0.0 0.5 0.6 -0.2 -0.5 0.6 1.0 -0.2 0.4 1.7 1.9 2.6 3.6 3.6 3.5 4.2 4.5 4.7 4.4 4.6 5.0 5.4 5.8 6.2 7.5 9.2
-0.1 -0.0 -0.4 0.5 1.0 0.5 -0.9 -0.9 -0.7 -1.1 -1.7 -2.3 -1.8 -0.8 -1.7 0.2 0.5 -0.7 0.2 -0.7 -0.7 -1.1 -1.0 0.5 1.6 1.7 2.0 2.3 2.8 3.5 4.2 5.0 5.4 6.0 6.3 7.0 8.6 9.0
-0.1 -0.7 -0.3 0.9 2.3 2.5 2.6 2.0 0.2 -0.4 -1.2 -3.0 -2.9 -0.1 -0.1 -0.4 -0.8 -0.2 -1.7 -2.2 -1.2 -0.4 -0.7 0.2 0.9 0.3 1.3 2.3 3.1 4.1 4.2 4.5 5.0 5.6 6.3 6.9 7.3 7.5
-0.4 -0.8 -0.5 0.1 -0.8 -1.3 2.2 1.6 2.3 2.8 1.3 -0.4 0.3 0.2 0.6 0.1 -1.3 -1.4 -0.3 -2.6 -1.8 0.7 0.1 -0.5 -0.5 0.1 1.6 2.2 1.9 2.5 3.3 4.5 4.7 5.2 5.2 5.5 5.9 6.1
-2.2 -1.7 -1.5 -2.0 -1.1 -1.2 -1.3 -1.1 -0.8 -0.3 0.8 1.3 0.7 0.7 0.9 0.9 0.6 -0.4 -0.8 -0.1 0.9 0.9 0.6 -1.6 -1.0 -0.4 0.5 0.1 0.7 2.2 3.8 4.5 5.0 5.0 4.9 5.1 5.3 5.5
-1.9 -1.9 -1.8 -1.5 1.9 1.3 -0.5 0.2 0.1 0.7 2.4 3.8 3.7 4.4 4.8 5.5 3.1 0.6 0.3 -0.5 -0.0 1.5 0.5 0.4 -1.0 -1.6 -1.4 -1.5 0.5 2.4 3.8 4.4 4.4 4.6 4.8 4.6 4.6 4.9
-1.2 -0.6 1.6 0.3 2.5 2.1 -0.1 0.3 0.7 0.9 0.5 1.8 1.7 2.3 2.8 4.6 4.1 2.5 -1.3 -3.4 -2.5 -1.3 -0.1 -0.0 -1.3 -1.1 -2.0 -1.6 -0.3 2.0 2.4 2.7 3.8 3.6 3.6 3.9 4.2 4.3
-0.8 -0.8 -0.5 2.7 3.3 3.7 2.6 0.6 1.5 1.6 2.5 1.2 1.1 1.0 1.6 2.2 2.4 2.4 1.6 -1.3 1.3 1.7 2.4 2.2 -1.2 1.1 1.5 -0.6 -2.6 -0.7 0.6 0.8 1.5 1.5 2.3 3.0 4.2 5.4
-0.7 -0.9 -0.4 2.4 3.4 3.5 2.4 3.4 4.8 3.0 1.3 1.6 1.2 0.5 1.2 1.1 0.7 2.5 2.8 2.3 1.9 1.3 1.8 2.1 1.4 1.3 1.6 2.4 0.7 -2.1 -0.7 0.9 0.9 0.5 1.0 2.7 3.5 4.8
-0.6 0.6 2.2 3.0 3.3 1.9 3.4 4.4 3.7 1.6 1.5 0.2 0.5 0.2 -0.0 1.8 2.8 2.1 2.2 2.2 1.8 2.0 2.3 2.7 2.4 2.0 1.6 2.6 2.7 1.0 1.8 -0.6 1.4 0.4 0.6 0.8 1.7 2.3
1.1 -0.8 1.3 1.8 1.9 2.1 2.1 1.8 1.6 1.2 -0.1 -1.0 -0.7 -0.1 2.0 2.0 1.7 1.2 0.6 1.0 0.4 -2.4 2.5 3.0 2.2 -1.7 -1.8 0.7 1.9 1.3 1.8 2.8 -0.0 1.1 2.1 2.0 2.0 1.9
-0.6 -0.7 -0.6 -0.6 -0.0 0.2 0.3 0.6 0.7 1.2 -0.2 -0.4 0.5 2.6 3.0 2.3 2.3 1.6 1.3 1.2 1.2 -2.2 -2.2 0.2 2.7 2.2 0.2 0.3 1.4 1.1 1.6 1.6 1.6 1.5 0.8 2.0 1.5 1.8
-0.3 -0.8 -0.8 -0.8 -1.1 -0.4 0.0 0.3 0.5 1.4 0.5 0.9 1.7 2.2 2.1 2.1 1.9 1.8 2.1 2.0 1.3 -0.8 -1.9 -2.2 -3.1 -1.4 -0.5 0.5 1.4 1.2 0.8 0.9 1.3 1.2 0.8 2.2 1.8 2.1
-0.7 -1.9 -2.5 -2.4 -2.5 -2.5 -2.5 -2.6 -2.7 -1.4 -2.8 -1.9 -0.3 2.1 2.1 2.1 2.8 2.3 2.6 2.2 1.2 -0.7 -0.5 -2.0 -4.4 -0.8 2.3 2.9 1.2 5.3 2.5 2.1 1.0 2.7 3.2 3.0 3.1 2.1
-2.9 -3.0 -3.2 -3.0 -3.1 -3.3 -3.7 -4.5 -4.5 -4.0 -4.0 -2.5 -2.3 -1.7 0.2 2.6 2.6 2.6 2.7 2.8 2.4 0.9 0.2 -2.3 -3.5 -1.1 2.6 3.2 3.4 1.5 3.8 3.4 3.1 2.8 3.0 3.5 3.4 4.2
-3.3 -3.7 -3.4 -3.6 -3.8 -3.9 -3.7 -4.8 -5.6 -5.8 -5.7 -5.5 -4.5 -3.1 -1.7 2.2 2.9 2.9 2.9 4.1 4.8 3.6 2.7 1.4 1.6 4.5 2.3 3.6 3.8 3.1 3.0 4.7 5.4 4.4 4.1 4.5 4.4 4.9
-2.4 -2.9 -2.9 -3.5 -4.0 -4.6 -4.9 -6.1 -7.3 -6.8 -5.7 -5.9 -4.5 -4.2 -2.9 -3.1 1.3 2.3 2.2 2.4 1.9 1.6 1.7 1.6 1.6 -0.7 -0.8 3.6 3.6 3.9 3.6 3.5 4.5 5.5 6.1 6.5 5.7 6.7
-2.0 -2.1 -2.8 -3.3 -3.7 -4.3 -6.1 -7.2 -7.2 -5.9 -6.3 -5.5 -5.2 -4.6 -4.9 -3.7 -0.7 0.7 1.6 2.0 2.1 1.9 1.9 2.2 2.7 1.4 2.8 3.4 4.6 4.5 4.4 4.6 4.1 3.6 3.3 4.8 5.6 6.5
Wind_Speed
4 4 2 2 2 2 1 1 3 3 3 2 1 4 5 6 9 8 6 4 0 5 8 10 10 11 12 11 11 12 13 14 13 15 15 17 17 17
2 6 3 2 3 2 1 2 1 3 3 1 2 1 1 3 3 4 3 1 4 7 8 7 8 9 9 10 10 11 12 13 13 14 15 17 17 17
3 6 6 4 3 3 3 2 2 1 2 1 1 2 2 1 2 2 1 2 2 3 5 6 7 7 8 9 10 11 12 13 14 15 15 15 16 17
4 6 5 4 4 4 3 3 2 2 3 3 1 1 1 1 2 2 1 2 1 2 5 6 6 6 9 11 12 12 11 11 13 12 14 16 18 18
5 5 6 5 4 3 3 3 3 2 2 3 2 1 1 1 2 2 3 3 2 2 4 6 8 6 8 9 10 10 12 12 13 14 15 16 16 16
6 7 6 5 5 5 4 4 3 3 4 4 3 2 2 3 3 2 1 2 2 5 7 6 3 7 10 11 10 9 10 11 13 14 14 15 16 17
8 7 6 8 10 7 3 3 4 3 3 3 2 2 1 1 1 0 0 2 2 1 2 3 6 10 10 5 5 8 9 11 13 14 16 17 17 17
8 7 6 8 9 12 11 9 6 3 2 2 1 2 1 1 1 1 1 2 3 1 3 3 3 2 5 5 9 12 14 13 12 11 12 13 14 16
7 6 5 3 7 6 9 10 9 7 4 4 3 3 3 3 3 1 1 2 2 2 2 3 3 3 5 11 13 11 8 4 4 11 12 13 15 16
6 5 5 5 5 5 5 5 4 5 4 3 3 3 3 5 4 4 4 2 3 2 1 1 2 3 6 9 5 3 3 1 14 13 13 16 17 18
5 4 5 5 8 7 5 3 2 2 4 4 2 0 1 2 7 4 1 2 2 1 2 1 2 3 2 3 6 6 4 14 15 15 19 19 19 19
3 3 8 5 6 5 4 2 2 1 1 2 3 3 5 4 6 4 3 2 1 2 1 2 2 2 4 2 4 11 14 13 15 21 20 17 16 13
3 3 2 4 3 1 4 2 2 3 1 2 1 1 2 3 4 5 5 2 1 2 4 1 1 1 2 3 2 6 9 11 16 16 16 15 14 12
3 2 1 1 1 1 2 3 2 5 2 1 1 0 1 1 1 1 4 5 7 7 10 6 2 2 2 6 6 2 3 13 14 9 11 14 15 18
3 4 4 3 1 2 3 3 4 2 2 1 1 1 2 2 2 4 5 6 8 10 11 11 7 5 4 6 8 9 9 4 14 6 6 7 8 11
4 1 0 1 3 1 1 2 1 2 2 2 2 1 1 1 2 1 1 2 2 3 9 10 11 6 2 6 8 10 8 5 4 6 7 8 13 14
4 1 1 1 1 1 1 1 1 1 2 2 2 2 4 2 4 1 2 2 3 3 3 3 10 13 12 8 7 9 9 7 7 8 4 8 7 12
2 2 1 2 3 2 2 2 2 3 2 2 2 2 2 3 3 2 3 3 4 3 3 3 2 3 2 8 21 8 4 5 6 5 4 7 10 9
3 3 2 3 2 3 3 3 3 3 2 3 3 3 3 3 7 4 4 4 5 3 5 2 2 2 3 6 3 15 6 6 3 8 7 7 9 11
2 3 3 3 3 3 2 3 2 2 2 3 3 3 3 4 4 5 5 6 6 5 6 3 3 4 4 4 4 9 18 8 7 8 9 8 11 26
3 3 3 3 3 3 3 3 3 3 3 3 3 3 4 4 6 7 7 12 12 7 8 8 5 12 4 6 6 9 8 16 17 9 8 8 11 10
4 5 4 4 4 4 4 3 3 3 3 3 4 4 4 2 5 7 6 7 7 6 8 8 7 2 2 5 10 12 9 9 15 22 26 24 10 6
5 5 4 5 4 4 4 3 4 4 3 4 4 4 3 3 5 5 6 7 7 7 7 9 7 3 7 7 12 11 15 14 9 10 10 22 29 31
Wind_Direction
111 102 98 65 94 123 140 166 175 182 219 91 124 47 81 91 80 109 103 75 340 271 279 285 290 291 292 304 304 304 301 298 304 298 298 290 287 289
123 115 98 101 86 71 130 112 134 179 177 86 79 99 88 102 90 124 119 265 292 286 290 285 290 298 301 299 294 298 298 301 299 298 296 294 295 303
102 108 104 124 98 92 69 75 70 90 123 104 86 49 62 100 93 122 143 233 251 296 291 287 289 293 294 297 305 303 303 299 295 291 298 302 299 298
115 102 117 96 82 75 82 78 90 57 114 138 115 115 104 140 122 120 183 186 170 250 283 286 298 310 308 300 293 290 292 297 296 292 295 293 295 297
104 111 105 106 96 88 83 86 70 58 80 119 122 87 97 75 80 63 47 9 8 26 330 312 304 308 315 305 294 290 289 289 288 287 286 288 290 292
84 80 83 92 104 101 91 90 83 74 72 91 86 96 71 38 67 71 346 6 318 321 317 318 282 298 300 294 285 285 288 287 287 288 287 286 289 293
79 81 86 100 105 107 114 93 94 78 80 75 69 62 23 66 115 354 60 307 295 313 319 309 308 305 302 294 297 294 289 286 285 289 290 287 289 291
94 75 63 72 96 103 100 101 106 106 77 96 105 110 196 174 133 138 151 44 327 2 348 300 296 304 300 300 299 293 290 285 283 286 296 297 297 298
96 90 79 69 76 59 80 68 68 79 112 143 141 184 184 195 135 125 206 145 233 288 5 295 354 306 266 298 301 291 271 243 344 318 303 298 296 293
97 112 120 106 101 96 88 73 59 47 68 100 130 175 189 176 173 169 180 223 273 288 136 272 333 271 294 321 349 350 216 198 328 320 313 306 299 294
106 123 109 111 102 90 90 101 68 39 40 75 93 78 66 238 197 119 324 71 320 320 28 323 320 290 302 315 351 9 328 316 323 315 313 306 301 297
113 99 113 107 90 108 112 113 64 286 68 29 14 27 34 75 82 95 134 122 190 343 282 15 328 359 331 297 299 331 324 319 316 312 308 305 302 298
135 125 65 107 82 60 138 143 207 172 80 78 79 71 69 88 99 109 118 139 240 259 278 6 248 298 234 301 281 271 294 294 299 297 299 303 301 297
153 137 165 219 125 67 86 264 268 122 118 112 95 87 125 142 223 30 331 280 246 243 272 275 259 204 242 292 283 281 281 283 267 273 280 296 296 295
138 165 195 229 245 64 320 297 103 117 123 108 171 233 196 176 358 296 288 287 283 282 279 263 248 272 258 267 275 288 309 304 295 283 280 269 277 285
139 90 187 109 152 156 49 50 98 157 166 173 191 224 226 293 276 241 250 270 268 275 269 269 261 207 244 247 256 272 273 273 288 285 280 279 280 266
142 113 90 92 204 221 225 236 222 209 151 180 182 242 274 265 280 240 256 258 252 288 291 279 280 263 237 241 265 258 265 266 266 274 276 287 281 275
136 164 197 214 218 216 229 243 222 238 215 225 212 205 245 255 270 254 253 242 274 266 272 274 304 335 305 258 225 252 261 258 272 262 252 274 290 284
184 198 200 205 220 210 205 197 223 225 217 209 195 214 241 248 286 280 278 274 274 262 266 235 217 181 277 280 272 246 247 266 264 284 277 263 274 283
177 198 217 215 215 216 213 209 228 242 239 233 225 208 223 241 259 267 276 278 279 277 277 236 214 213 240 251 282 283 273 267 265 271 280 278 272 281
206 215 214 212 211 208 217 215 209 219 220 226 238 226 229 229 261 269 271 276 280 286 284 281 259 269 256 269 267 273 280 267 262 261 275 278 288 289
207 215 218 213 215 210 210 206 214 231 239 227 236 233 243 230 262 266 258 267 264 258 263 274 283 252 212 252 272 282 289 290 274 269 267 264 267 273
216 216 217 217 214 209 202 201 208 228 218 227 231 235 222 236 239 247 257 258 261 267 267 276 277 228 257 261 272 281 281 290 291 291 273 263 263 261